WetterOnline ( http://www.wetteronline.de )

Wetter aktuell Euskirchen

Aktuelles Wetter: Nürburg-Barweiler (488m)

6-stündlich | Neueste Meldungen
Ortszeit Temperatur Wetter
Do, 19.07. 8:00 13.2° C wolkig
Do, 19.07. 2:00 14.5° C leicht bewölkt
Mi, 18.07. 20:00 21.5° C wolkig
Mi, 18.07. 14:00 21.8° C bedeckt
Mi, 18.07. 8:00 13.6° C leicht bewölkt
Mi, 18.07. 2:00 14.5° C leicht bewölkt
Di, 17.07. 20:00 20.9° C wolkenlos
Di, 17.07. 14:00 22.2° C bewölkt
Ortszeit Temperatur Wetter
Do, 19.07. 13:30 23.8° C leicht bewölkt
Do, 19.07. 13:20 23.8° C leicht bewölkt
Do, 19.07. 13:10 23.5° C leicht bewölkt
Do, 19.07. 13:00 23.6° C bewölkt
Do, 19.07. 12:50 23.6° C bedeckt
Do, 19.07. 12:40 23.2° C wolkig
Do, 19.07. 12:30 21.5° C bewölkt
Do, 19.07. 12:00 21.4° C bewölkt
Do, 19.07. 11:30 21.5° C bewölkt
Do, 19.07. 11:00 21.6° C wolkig
Do, 19.07. 10:30 21.3° C wolkig
Ortszeit Relative Feuchte Sichtweite
Do, 19.07. 8:00 74% 14 km
Do, 19.07. 2:00 68% 30 km
Mi, 18.07. 20:00 42% 35 km
Mi, 18.07. 14:00 43% 35 km
Mi, 18.07. 8:00 71% 19 km
Mi, 18.07. 2:00 73% 28 km
Di, 17.07. 20:00 58% 40 km
Di, 17.07. 14:00 67% 28 km
Ortszeit Relative Feuchte Sichtweite
Do, 19.07. 13:30 40% 22 km
Do, 19.07. 13:20 40% -
Do, 19.07. 13:10 36% -
Do, 19.07. 13:00 40% 27 km
Do, 19.07. 12:50 40% -
Do, 19.07. 12:40 38% -
Do, 19.07. 12:30 43% 30 km
Do, 19.07. 12:00 44% 25 km
Do, 19.07. 11:30 42% 25 km
Do, 19.07. 11:00 46% 21 km
Do, 19.07. 10:30 48% 28 km
Ortszeit Niederschlagsmenge Niederschlagsart
Do, 19.07. 8:00 0.0 l/m2 in 12 Std. -
Do, 19.07. 2:00 0.0 l/m2 in 6 Std. -
Mi, 18.07. 20:00 0.0 l/m2 in 12 Std. -
Mi, 18.07. 14:00 0.0 l/m2 in 6 Std. -
Mi, 18.07. 8:00 0.0 l/m2 in 12 Std. -
Mi, 18.07. 2:00 0.0 l/m2 in 6 Std. -
Di, 17.07. 20:00 2 l/m2 in 12 Std. Regen
Di, 17.07. 14:00 2 l/m2 in 6 Std. Regenschauer
Ortszeit Niederschlagsmenge Niederschlagsart
Do, 19.07. 13:30 0.0 l/m2 in 1 Std. -
Do, 19.07. 13:20 keine Meldung -
Do, 19.07. 13:10 keine Meldung -
Do, 19.07. 13:00 0.0 l/m2 in 1 Std. -
Do, 19.07. 12:50 keine Meldung -
Do, 19.07. 12:40 keine Meldung -
Do, 19.07. 12:30 0.0 l/m2 in 1 Std. -
Do, 19.07. 12:00 0.0 l/m2 in 1 Std. -
Do, 19.07. 11:30 0.0 l/m2 in 1 Std. -
Do, 19.07. 11:00 0.0 l/m2 in 1 Std. -
Do, 19.07. 10:30 0.0 l/m2 in 1 Std. -
Ortszeit Stärke Spitze Richtung
km/h Bft. km/h Grad Sektor
Do, 19.07. 8:00 4 1 7 230° SW
Do, 19.07. 2:00 4 1 14 240° SW
Mi, 18.07. 20:00 11 2 29 50° NO
Mi, 18.07. 14:00 11 2 25 310° NW
Mi, 18.07. 8:00 2 1 13 280° W
Mi, 18.07. 2:00 7 2 22 360° N
Di, 17.07. 20:00 9 2 48 10° N
Di, 17.07. 14:00 7 2 25 70° O
Ortszeit Stärke Spitze Richtung
km/h Bft. km/h Grad Sektor
Do, 19.07. 13:30 7 2 19 110° O
Do, 19.07. 13:20 7 2 - 110° O
Do, 19.07. 13:10 7 2 - 140° SO
Do, 19.07. 13:00 7 2 18 140° SO
Do, 19.07. 12:50 7 2 - 140° SO
Do, 19.07. 12:40 7 2 - 160° S
Do, 19.07. 12:30 9 2 17 140° SO
Do, 19.07. 12:00 7 2 18 40° NO
Do, 19.07. 11:30 6 1 17 110° O
Do, 19.07. 11:00 9 2 20 80° O
Do, 19.07. 10:30 9 2 17 100° O
Ortszeit Untergrenze Bedeckung Gattung
total tief tief mittel hoch
Do, 19.07. 8:00 - 8/8 - - - -
Do, 19.07. 2:00 2700 m 2/8 2/8 - - -
Mi, 18.07. 20:00 - 8/8 - - - -
Mi, 18.07. 14:00 - 8/8 - - - -
Mi, 18.07. 8:00 2100 m 2/8 2/8 - - -
Mi, 18.07. 2:00 2700 m 2/8 2/8 - - -
Di, 17.07. 20:00 - 0/8 0/8 - - -
Di, 17.07. 14:00 1800 m 7/8 7/8 - - -
Ortszeit Bedeckungsgrad in Achtel und Wolkenuntergrenze
Do, 19.07. 13:30 3(1800m)
Do, 19.07. 13:20 3(1800m)
Do, 19.07. 13:10 3(1800m)
Do, 19.07. 13:00 4(1800m)
Do, 19.07. 12:50 9 9 9
Do, 19.07. 12:40 6(1800m)
Do, 19.07. 12:30 7(1800m) 9 9
Do, 19.07. 12:00 7(1500m)
Do, 19.07. 11:30 7(1500m) 9 9
Do, 19.07. 11:00 3(1800m) 4(2400m)
Do, 19.07. 10:30 1(1800m) 2(2400m) 9
Ortszeit Luftdruck NN (hPa) Tendenz (hPa in 3 Std.)
Do, 19.07. 8:00 1019 0,0
Do, 19.07. 2:00 1019 + 0,5
Mi, 18.07. 20:00 1017 - 0,6
Mi, 18.07. 14:00 1018 - 0,4
Mi, 18.07. 8:00 1020 + 0,5
Mi, 18.07. 2:00 1019 + 0,8
Di, 17.07. 20:00 1016 + 0,7
Di, 17.07. 14:00 1014 0,0
Ortszeit Luftdruck NN (hPa) Tendenz (hPa in 3 Std.)
Do, 19.07. 13:30 1017 - 0,6
Do, 19.07. 13:20 1017 keine Meldung
Do, 19.07. 13:10 1017 keine Meldung
Do, 19.07. 13:00 1017 - 0,4
Do, 19.07. 12:50 1017 keine Meldung
Do, 19.07. 12:40 1017 keine Meldung
Do, 19.07. 12:30 1018 - 0,3
Do, 19.07. 12:00 1018 - 0,2
Do, 19.07. 11:30 1018 0,0
Do, 19.07. 11:00 1018 + 0,2
Do, 19.07. 10:30 1018 + 0,4
Ortszeit Schneehöhe (cm)
Do, 19.07. 8:00 -
Do, 19.07. 2:00 -
Mi, 18.07. 20:00 -
Mi, 18.07. 14:00 -
Mi, 18.07. 8:00 -
Mi, 18.07. 2:00 -
Di, 17.07. 20:00 -
Di, 17.07. 14:00 -
Ortszeit Schneehöhe (cm)
Do, 19.07. 13:30 -
Do, 19.07. 13:20 -
Do, 19.07. 13:10 -
Do, 19.07. 13:00 -
Do, 19.07. 12:50 -
Do, 19.07. 12:40 -
Do, 19.07. 12:30 -
Do, 19.07. 12:00 -
Do, 19.07. 11:30 -
Do, 19.07. 11:00 -
Do, 19.07. 10:30 -
Link zu dieser Seite / Seite empfehlen

Das Wetter in ...